FW9865 Weather Reports


time (UTC)temp
C
wind
direction
speed
KPH
gust
KPH
rain 1hr
cm
rain 24hr
cm
rain mn
cm
humidity
%
barometer
mb
20260507050051 10 0 0.0 6.4 0.00 0.86 0.00 94 1006.3
20260507044552 10 0 0.0 6.4 0.00 0.86 0.00 94 1006.6
20260507043048 10 247 0.0 3.2 0.00 0.86 0.00 94 1006.2
20260507041546 11 0 0.0 3.2 0.03 0.86 0.00 94 1006.4
20260507040047 11 0 0.0 4.8 0.03 0.86 0.00 94 1006.1
20260507034542 11 0 0.0 11.3 0.03 0.86 0.86 94 1006.0
20260507033046 12 0 0.0 6.4 0.03 0.86 0.86 93 1006.0
20260507031550 12 0 0.0 9.7 0.03 0.84 0.84 94 1006.0
20260507030047 13 249 0.0 11.3 0.05 0.84 0.84 95 1005.7
20260507024546 13 30 1.6 8.0 0.08 0.84 0.84 96 1005.3
20260507023044 15 202 0.0 4.8 0.08 0.84 0.84 96 1005.1
20260507021547 15 0 0.0 3.2 0.05 0.81 0.81 96 1004.7
20260507020045 15 0 0.0 0.0 0.03 0.79 0.79 96 1004.8
20260507014553 15 0 0.0 3.2 0.00 0.76 0.76 96 1004.9
20260507013106 15 0 0.0 0.0 0.00 0.76 0.76 96 1005.1
20260507011546 15 0 0.0 0.0 0.00 0.76 0.76 96 1005.1
20260507004548 15 0 0.0 1.6 0.00 0.76 0.76 96 1005.0
20260507003052 15 0 0.0 6.4 0.00 0.76 0.76 96 1005.0
20260507001555 15 0 0.0 4.8 0.00 0.76 0.76 95 1004.8
20260507000054 15 0 0.0 3.2 0.00 0.76 0.76 96 1004.8
20260506234554 15 0 0.0 4.8 0.00 0.76 0.76 96 1004.8
20260506233103 15 0 0.0 4.8 0.00 0.76 0.76 96 1004.9
20260506231546 15 0 0.0 3.2 0.00 0.76 0.76 95 1005.1
20260506230050 15 312 0.0 4.8 0.00 0.76 0.76 95 1005.0
20260506224546 15 0 0.0 3.2 0.00 0.76 0.76 95 1005.1
20260506223053 15 0 0.0 8.0 0.05 0.76 0.76 95 1005.2
20260506221558 15 0 0.0 8.0 0.08 0.76 0.76 95 1005.3
20260506220046 15 11 0.0 6.4 0.13 0.76 0.76 95 1005.3
20260506214542 16 44 0.0 11.3 0.15 0.76 0.76 95 1005.5
20260506213045 16 23 0.0 4.8 0.13 0.71 0.71 95 1005.6
20260506211546 16 68 0.0 6.4 0.13 0.69 0.69 95 1005.7
20260506210044 16 0 0.0 4.8 0.13 0.64 0.64 95 1005.9
20260506204546 16 0 0.0 11.3 0.13 0.61 0.61 95 1006.0
20260506203048 16 0 0.0 6.4 0.10 0.58 0.58 95 1006.1
20260506201546 16 0 0.0 0.0 0.10 0.56 0.56 95 1006.2
20260506200048 16 0 0.0 1.6 0.08 0.51 0.51 95 1006.1
20260506194548 16 0 0.0 0.0 0.15 0.48 0.48 94 1006.1
20260506193049 16 0 0.0 0.0 0.23 0.48 0.48 94 1006.2
20260506191546 16 0 0.0 1.6 0.23 0.46 0.46 93 1006.4
20260506190050 16 0 0.0 1.6 0.30 0.43 0.43 92 1006.8
20260506184548 17 0 0.0 3.2 0.33 0.33 0.33 92 1007.2
20260506183045 17 0 0.0 1.6 0.25 0.25 0.25 90 1007.0
20260506181553 17 0 0.0 3.2 0.23 0.23 0.23 86 1007.1
20260506180055 19 0 0.0 4.8 0.13 0.13 0.13 79 1007.2
20260506174550 21 280 1.6 11.3 0.00 0.00 0.00 67 1006.6
20260506173105 22 0 0.0 12.9 0.00 0.00 0.00 59 1006.4
20260506171553 22 0 0.0 12.9 0.00 0.00 0.00 58 1006.6
20260506170044 22 0 1.6 9.7 0.00 0.00 0.00 60 1006.8
20260506164609 22 0 1.6 12.9 0.00 0.00 0.00 60 1007.1
20260506163057 21 198 0.0 11.3 0.00 0.00 0.00 61 1007.3
20260506161551 21 71 3.2 17.7 0.00 0.00 0.00 61 1007.5
20260506160104 21 0 0.0 9.7 0.00 0.00 0.00 62 1008.0
20260506154553 21 155 0.0 8.0 0.00 0.00 0.00 64 1008.2
20260506153049 21 54 0.0 20.9 0.00 0.00 0.00 64 1008.6
20260506151553 21 0 1.6 11.3 0.00 0.00 0.00 66 1008.6
20260506150051 20 317 0.0 6.4 0.00 0.00 0.00 68 1008.7
20260506144549 20 0 0.0 14.5 0.00 0.00 0.00 69 1008.6
20260506143049 20 0 0.0 4.8 0.00 0.00 0.00 70 1008.7
20260506141609 20 103 0.0 11.3 0.00 0.00 0.00 70 1008.4
20260506140052 19 247 0.0 8.0 0.00 0.00 0.00 71 1008.6
20260506134549 18 0 0.0 8.0 0.00 0.00 0.00 73 1008.6
20260506133049 18 0 0.0 3.2 0.00 0.00 0.00 74 1008.8
20260506131548 18 0 0.0 6.4 0.00 0.00 0.00 75 1008.7
20260506130045 18 0 0.0 9.7 0.00 0.00 0.00 75 1008.9
20260506124551 17 0 0.0 6.4 0.00 0.00 0.00 76 1008.7
20260506123052 17 336 0.0 4.8 0.00 0.00 0.00 76 1008.6
20260506121555 17 0 0.0 8.0 0.00 0.00 0.00 78 1009.0
20260506120112 16 15 1.6 6.4 0.00 0.00 0.00 79 1009.1
20260506114547 16 0 0.0 4.8 0.00 0.00 0.00 80 1009.3
20260506113048 15 0 0.0 8.0 0.00 0.00 0.00 82 1009.4
20260506111552 15 0 0.0 3.2 0.00 0.00 0.00 84 1009.4
20260506110051 14 0 0.0 3.2 0.00 0.00 0.00 85 1009.7
20260506104548 13 0 0.0 0.0 0.00 0.00 0.00 86 1009.6
20260506103047 13 0 0.0 1.6 0.00 0.00 0.00 87 1009.3
20260506101547 13 0 0.0 1.6 0.00 0.00 0.00 88 1009.3
20260506100046 12 0 0.0 1.6 0.00 0.00 0.00 88 1009.5
20260506094551 12 0 0.0 1.6 0.00 0.00 0.00 88 1009.2
20260506093052 12 0 0.0 0.0 0.00 0.00 0.00 87 1009.3
20260506091547 12 0 0.0 0.0 0.00 0.00 0.00 86 1009.2
20260506090048 12 0 0.0 0.0 0.00 0.00 0.00 85 1009.2
20260506084544 13 0 0.0 1.6 0.00 0.00 0.00 84 1009.2
20260506083047 13 0 0.0 0.0 0.00 0.00 0.00 83 1009.1
20260506081554 13 0 0.0 0.0 0.00 0.00 0.00 81 1009.2
20260506073048 15 0 0.0 0.0 0.00 0.00 0.00 76 1008.9
20260506071554 15 0 0.0 1.6 0.00 0.00 0.00 75 1008.8
20260506070114 15 0 0.0 0.0 0.00 0.00 0.00 74 1008.7
20260506061549 16 0 0.0 3.2 0.00 0.00 0.00 73 1008.5